Location: Newark
(44.6028°N, 124.0883°W)
Time: 10:13:14
(UTC+00:00)

Vanguard 1 - Pass Details

Date: 27 October 2019
Orbit: 652 x 3831 km, 34.2° (Epoch: 19 November)

Event Time Altitude Azimuth Distance (km) Brightness Sun altitude
Rises 02:55:33 0° 248° (WSW) 3,567 14.2 -18.6°
Reaches altitude 10° 02:57:46 10° 241° (WSW) 2,853 13.3 -19.0°
Maximum altitude 03:04:20 44° 171° (S) 1,956 11.4 -20.2°
Enters shadow 03:10:14 25° 118° (ESE) 3,256 12.2 -21.3°
Drops below altitude 10° 03:15:53 10° 105° (ESE) 4,956 - -22.3°
Sets 03:21:06 0° 101° (E) 6,498 - -23.2°
